COSMOS 2361 1 25590U 98076A 12037.55477638 .00000040 00000-0 27374-4 0 8854 2 25590 082.9359 122.6142 0030196 286.3264 073.4571 13.72764929657338 COSMOS 2378 1 26818U 01023A 12036.81149775 .00000051 00000-0 38814-4 0 9225 2 26818 082.9299 148.2187 0031611 248.5284 111.2503 13.73776100534631 COSMOS 2389 1 27436U 02026A 12037.54475713 .00000038 00000-0 23547-4 0 6174 2 27436 082.9495 089.3811 0047417 130.1228 230.4101 13.74776459486474 COSMOS 2398 1 27818U 03023A 12036.54329409 .00000048 00000-0 35280-4 0 5082 2 27818 082.9447 039.4579 0032712 118.4738 241.9727 13.72001220434344 COSMOS 2407 1 28380U 04028A 12037.38195265 .00000067 00000-0 53058-4 0 3517 2 28380 082.9601 357.3449 0039504 153.9812 206.3350 13.75890997378773 COSMOS 2414 1 28521U 05002A 12037.48753405 .00000053 00000-0 31048-4 0 6360 2 28521 082.9452 048.4675 0040748 155.7355 204.5743 13.87404095356806 COSMOS 2429 1 32052U 07038A 12035.97025292 +.00000013 +00000-0 -31582-5 0 00144 2 32052 082.9806 110.9293 0039983 120.1971 240.3155 13.74738966220845 COSMOS 2454 1 35635U 09039A 12037.43701357 .00000050 00000-0 28058-4 0 2654 2 35635 082.9524 041.9084 0020113 136.3864 223.8897 13.89433757129177 COSMOS 2463 1 36519U 10017A 12037.38232701 .00000015 00000-0 68615-6 0 7796 2 36519 082.9624 141.8688 0034692 279.2063 080.5168 13.71280405 89136